RH
61 62 68 74 69 65 62 56 55 50 44 47 53 55 59 62 62 61 59 48 52 54 52 48 47 49 56 60 62 59 57 63 75 81 81 76 75 76 70 66 67 61 59
52 59 67 67 64 58 63 70 66 64 57 49 48 49 47 49 52 56 55 55 53 61 61 59 47 48 45 47 56 62 60 57 64 74 81 78 75 74 76 75 72 68 62
23 25 30 36 45 48 52 60 51 59 62 60 59 55 54 47 47 50 51 52 60 68 70 72 76 57 42 42 47 57 57 54 57 63 70 68 73 78 76 79 79 76 69
18 15 14 15 17 25 34 40 43 47 56 61 63 64 64 63 59 57 57 57 54 60 68 76 78 77 67 47 38 47 56 60 61 60 64 64 70 76 78 83 83 78 76
20 18 16 15 14 12 13 17 22 28 33 38 45 53 61 63 65 64 61 64 67 59 57 69 78 79 79 74 48 38 45 58 70 63 67 61 62 70 73 80 80 80 84
23 21 20 19 18 17 17 16 15 16 18 24 29 35 43 51 61 64 75 73 68 66 62 59 66 77 80 82 78 43 39 51 76 72 66 61 56 62 67 70 76 77 82
23 21 23 24 22 20 18 18 18 19 19 18 18 18 21 28 43 55 65 70 70 73 69 68 60 66 75 77 78 56 42 42 57 76 71 67 57 58 63 60 65 74 79
20 21 22 22 21 21 21 21 20 20 20 21 21 21 20 16 17 26 39 51 62 68 70 75 76 66 73 77 75 63 50 49 48 58 62 72 65 62 63 66 67 68 73
19 18 19 18 18 18 18 19 20 21 20 20 21 22 23 23 24 21 19 23 32 42 52 71 76 84 72 80 77 74 73 69 61 57 62 66 71 72 68 69 70 71 68
21 22 23 24 24 24 25 24 24 24 23 22 21 23 24 24 25 25 27 29 24 22 28 36 54 63 57 72 79 82 79 76 71 66 61 66 67 67 71 72 72 71 74
22 22 24 25 27 28 27 27 27 27 27 27 28 27 27 28 29 31 34 34 31 29 29 26 31 39 43 51 64 82 83 86 81 68 65 63 69 66 64 64 72 72 69
25 25 25 26 26 28 28 28 29 30 31 31 32 32 33 32 35 38 42 45 45 39 30 29 28 27 35 44 51 54 81 90 90 76 67 64 71 77 66 61 61 65 64
28 28 29 30 30 30 32 35 35 34 35 37 39 39 39 41 43 41 44 48 53 53 45 37 35 33 31 37 44 52 59 66 80 77 66 67 71 74 74 69 63 61 61
30 31 31 31 32 33 34 36 36 34 36 39 41 43 46 49 48 52 53 54 57 56 53 50 48 46 44 46 45 44 46 48 45 45 73 73 77 83 77 75 71 68 62
34 34 36 36 37 36 36 36 38 39 41 43 47 50 51 52 58 60 62 66 64 62 61 61 63 62 61 52 48 41 44 39 34 43 76 72 84 84 79 78 73 73 65
39 39 40 42 42 44 43 42 45 46 48 51 53 54 55 56 57 60 62 64 67 68 66 66 63 61 59 56 52 45 37 36 37 39 43 63 79 78 75 76 73 71 65
44 45 45 47 49 50 52 53 54 54 55 56 57 59 63 62 63 63 63 64 65 69 68 68 69 63 60 62 55 52 51 49 46 48 48 50 67 72 69 70 75 72 65
41 42 42 46 50 52 54 56 58 57 57 61 63 67 66 66 63 62 63 66 66 66 68 69 70 68 63 60 60 55 54 56 57 54 53 57 62 66 66 72 72 71 65
40 41 44 47 50 54 59 60 62 64 66 64 64 70 75 74 73 76 80 76 71 74 72 72 74 73 67 61 61 62 57 53 57 62 61 62 68 67 64 69 72 74 72
32 32 33 42 52 58 64 68 70 69 68 64 65 70 72 73 78 79 79 81 80 82 82 81 83 82 74 67 59 58 58 61 62 62 62 63 64 64 66 67 71 75 74
23 24 27 30 37 40 45 53 60 64 67 74 75 74 77 77 80 82 88 86 86 87 87 83 85 88 82 71 63 60 63 63 62 62 64 64 65 63 66 66 73 77 76
22 25 26 23 24 27 33 37 43 48 54 73 79 81 79 90 92 92 91 90 91 86 87 88 89 90 88 77 68 65 69 69 67 67 68 69 67 64 64 59 62 76 78
25 27 23 22 20 20 26 28 27 30 40 54 66 76 86 91 96 94 94 93 92 91 88 90 88 87 87 78 69 64 65 66 67 68 68 74 72 72 70 70 70 76 79
28 27 24 22 20 21 19 19 20 22 25 38 55 71 85 88 97 98 97 97 94 94 94 95 93 88 84 80 74 69 68 66 64 66 68 78 80 77 75 76 84 85 87
30 25 24 20 19 19 20 20 18 21 23 24 32 48 61 75 87 92 95 98 98 99 98 97 96 93 87 78 73 71 68 63 67 73 71 77 85 88 82 82 88 92 92
29 26 26 23 20 15 16 17 15 16 20 24 25 26 34 49 67 84 94 98 99 98 96 97 95 91 86 84 85 87 86 84 74 74 79 84 87 89 83 89 90 90 95